Flag for Canada Weather past 2 weeks in Prince Rupert, British Columbia, Canada

Now
39 °F

Rain. Fog.


Feels Like: 34 °F
Forecast: 37 / 42 °F
Wind: 7 mph from East

Location: Prince Rupert

Current Time: Feb 1, 2015 at 1:44:29 PM

Latest Report: Feb 1, 2015 at 1:00 PM


Visibility: 6 mi

Pressure: 29.68 "Hg

Humidity: 93%

Dew point: 37 °F

Location of Prince RupertLocation

Historic Weather in Prince Rupert — Graph

°F

Prince Rupert temperature yesterday

Maximum temperature yesterday: 41 °F (at 2:00 PM)
Minimum temperature yesterday: 32 °F (at 5:00 AM)
Average temperature yesterday: 37 °F

Past Weeks' High & Low Weather Summary

 TemperatureHumidityPressure
High54 °F (Jan 24, 5:51 PM)100% (Jan 18, 1:00 AM)30.32 "Hg (Jan 18, 1:00 AM)
Low32 °F (Jan 31, 5:00 AM)66% (Jan 27, 2:00 PM)29.31 "Hg (Jan 18, 5:00 AM)
Average44 °F90%29.92 "Hg
* Reported Jan 17 12:00 Noon — Feb 1 12:00 Noon, Prince Rupert, Weather by CustomWeather, © 2014

Note: Actual official high and low records may vary slightly from our data, if they occured in-between our weather recording intervals... More about our weather records

Advertising

Prince Rupert weather history for previous 24 hours

 ConditionsComfort  
Time TempWeatherWind HumidityBarometerVisibility
12:00 PM
Feb 1
41 °FLight rain. Overcast.6 mph93%29.67 "Hg9 mi
11:00 AM41 °FLight rain. Overcast.5 mph93%29.68 "Hg9 mi
10:00 AM41 °FLight rain. Overcast.6 mph87%29.69 "Hg9 mi
9:00 AM41 °FLight rain. Overcast.7 mph87%29.70 "Hg9 mi
8:00 AM41 °FLight rain. Overcast.6 mph87%29.73 "Hg9 mi
7:00 AM41 °FLight rain. Overcast.6 mph87%29.76 "Hg9 mi
6:00 AM41 °FLight rain. Fog.7 mph87%29.79 "Hg5 mi
5:51 AM39 °FLight rain. Fog.6 mph93%29.80 "Hg5 mi
5:00 AM39 °FLight rain. Overcast.5 mph93%29.82 "Hg9 mi
4:00 AM39 °FLight rain. Overcast.5 mph93%29.85 "Hg7 mi
3:00 AM39 °FLight rain. Overcast.6 mph93%29.88 "Hg9 mi
2:00 AM39 °FLight rain. Overcast.8 mph93%29.91 "Hg9 mi
1:00 AM37 °FLight rain. Overcast.7 mph93%29.95 "Hg9 mi
12:00 AM39 °FLight rain. Overcast.3 mph87%29.99 "Hg9 mi
11:00 PM
Jan 31
39 °FLight rain. Fog.8 mph87%30.01 "Hg5 mi
10:53 PM39 °FRain. Fog.8 mph81%30.01 "Hg5 mi
10:00 PM37 °FOvercast.2 mph93%30.01 "Hg9 mi
9:00 PM37 °FOvercast.5 mph93%30.01 "Hg9 mi
8:00 PM37 °FOvercast.No wind93%30.03 "Hg9 mi
7:00 PM37 °FPassing clouds.5 mph93%30.04 "Hg9 mi
6:00 PM37 °FMostly cloudy.No wind93%30.06 "Hg9 mi
5:00 PM39 °FPassing clouds.No wind93%30.08 "Hg9 mi
4:00 PM41 °FSunny.3 mph87%30.11 "Hg9 mi
3:00 PM41 °FSunny.3 mph87%30.14 "Hg9 mi
2:00 PM41 °FSunny.3 mph87%30.17 "Hg9 mi
1:00 PM39 °FSunny.2 mph93%30.18 "Hg9 mi
Weather by CustomWeather, © 2014

See weather overviewHow to use our weather pages